Voltar ao catálogo

STARLINK-38305

AtivoComunicaçõesSSO
NORAD 100372·PAYLOAD·🇺🇸 United States

Lançado Aug 19, 2026 de Vandenberg Space Force Base

Loading…

Próximas Passagens (próximas 24 horas)

TLE

AtualizadoSource: Space-Track

Época: Sep 14, 2026, 13:51 UTC

1 A0372U 26190B   26257.57760871  .00168626  00000-0  11080-2 0  9994
2 A0372  97.2845 111.6470 0001506  87.5139 272.6299 15.75215433  5440

Acompanhe STARLINK-38305 em tempo real com AllMySat

Download on the App Store